Location: *
(50.5492°N, 7.7469°E)
Time: 17:29:23
(UTC+00:00)

STARLINK-66 - Pass Details

Date: 21 October 2019
Orbit: 548 x 551 km, 53.0° (Epoch: 14 November)

Event Time Altitude Azimuth Distance (km) Brightness Sun altitude
Rises 18:45:29 0° 285° (WNW) 2,720 8.6 -22.8°
Reaches altitude 10° 18:47:44 10° 288° (WNW) 1,826 7.4 -23.2°
Enters shadow 18:51:36 68° 341° (NNW) 597 3.8 -23.8°
